Location: Wangen+im+Allg�u
(47.7098°N, 9.8383°E)
Time: 19:08:21
(UTC+01:00)

ISS - Pass Details

Date: 14 February 2018
Orbit: 402 x 407 km, 51.6° (Epoch: 25 February)

Event Time Altitude Azimuth Distance (km) Brightness Sun altitude
Rises 18:24:36 0° 284° (WNW) 2,319 1.4 -7.8°
Reaches altitude 10° 18:27:22 10° 259° (W) 1,456 0.7 -8.2°
Maximum altitude 18:29:12 14° 224° (SW) 1,221 -0.6 -8.5°
Drops below altitude 10° 18:31:03 10° 190° (S) 1,451 -0.8 -8.8°
Sets 18:33:48 0° 164° (SSE) 2,305 -0.1 -9.3°
